Flag Weather past 2 weeks in Ostrava, Czech Republic

Now
42 °F

Fog.


Feels Like: 42 °F
Forecast: 34 / 50 °F
Wind: 2 mph from Southwest

Location: Ostrava / Mosnov

Current Time: Oct 30, 2014 at 7:18:51 PM

Latest Report: Oct 30, 2014 at 6:00 PM


Visibility: 5 mi

Pressure: 30.35 "Hg

Humidity: 82%

Dew point: 37 °F

Location of OstravaLocation

Historic Weather in Ostrava — Graph

°F

Ostrava temperature yesterday

Maximum temperature yesterday: 52 °F (at 1:00 PM)
Minimum temperature yesterday: 29 °F (at 4:00 AM)
Average temperature yesterday: 39 °F

Past Weeks' High & Low Weather Summary

 TemperatureHumidityPressure
High65 °F (Oct 19, 2:00 PM)100% (Oct 28, 6:00 AM)30.52 "Hg (Oct 28, 6:00 AM)
Low28 °F (Oct 28, 6:00 AM)50% (Oct 28, 2:00 PM)29.54 "Hg (Oct 22, 3:00 AM)
Average47 °F86%30.12 "Hg
* Reported Oct 15 7:00 PM — Oct 30 6:00 PM, Ostrava, Weather by CustomWeather, © 2014

Note: Actual official high and low records may vary slightly from our data, if they occured in-between our weather recording intervals... More about our weather records

Advertising

Ostrava weather history for previous 24 hours

 ConditionsComfort  
Time TempWeatherWind HumidityBarometerVisibility
6:00 PM
Oct 30
42 °FFog.2 mph82%30.35 "Hg5 mi
5:00 PM44 °FFog.2 mph81%30.33 "Hg4 mi
4:00 PM46 °FFog.5 mph71%30.30 "Hg6 mi
3:00 PM50 °FPassing clouds.5 mph64%30.29 "Hg7 mi
2:00 PM51 °FScattered clouds.3 mph58%30.29 "Hg7 mi
1:00 PM51 °FPassing clouds.5 mph60%30.29 "Hg7 mi
12:00 PM49 °FHaze.5 mph62%30.30 "Hg6 mi
11:00 AM47 °FFog.6 mph68%30.30 "Hg6 mi
10:00 AM45 °FFog.6 mph74%30.30 "Hg6 mi
9:00 AM40 °FFog.3 mph82%30.31 "Hg4 mi
8:00 AM35 °FFog.2 mph90%30.31 "Hg3 mi
7:00 AM33 °FFog.2 mph95%30.29 "Hg2 mi
6:00 AM32 °FFog.3 mph95%30.28 "Hg3 mi
5:00 AM33 °FFog.3 mph95%30.27 "Hg2 mi
3:00 AM34 °FFog.2 mph95%30.26 "Hg2 mi
2:00 AM33 °FFog.2 mph92%30.25 "Hg6 mi
1:00 AM34 °FClear.2 mph89%30.25 "Hg6 mi
12:10 AM38 °FClear.5 mph85%30.23 "Hg7 mi
11:00 PM
Oct 29
39 °FClear.5 mph84%30.23 "Hg7 mi
10:00 PM37 °FClear.5 mph86%30.22 "Hg7 mi
9:00 PM37 °FFog.5 mph89%30.21 "Hg6 mi
8:00 PM39 °FClear.5 mph82%30.20 "Hg7 mi
7:00 PM39 °FClear.6 mph82%30.20 "Hg7 mi
Weather by CustomWeather, © 2014

See weather overviewHow to use our weather pages